When you browse on this site, cookies collect data to enhance your experience and personalize the content and advertising you see.
Visit our Privacy Policy to learn more. By continuing to use the site, you agree to this use of cookies and data.

Meteo pe oră la Dzierwany

Astăzi, 20 Septembrie, Duminică

Timp Temperatura Precipitaţii Vânt Presiune Umiditate
00:00 +9°C° 0 mm 2 m/s 743 mmHg 95%
01:00 +10°C° 0 mm 1 m/s 743 mmHg 95%
02:00 +10°C° 0 mm 1 m/s 743 mmHg 95%
03:00 +9°C° 0 mm 1 m/s 743 mmHg 94%
04:00 +9°C° 0 mm 1 m/s 743 mmHg 93%
05:00 +8°C° 0 mm 1 m/s 743 mmHg 92%
06:00 +9°C° 0 mm 1 m/s 743 mmHg 89%
07:00 +9°C° 0 mm 1 m/s 743 mmHg 85%
08:00 +10°C° 0 mm 1 m/s 744 mmHg 81%
09:00 +12°C° 0 mm 1 m/s 744 mmHg 75%
10:00 +14°C° 0 mm 1 m/s 744 mmHg 69%
11:00 +16°C° 0 mm 1 m/s 744 mmHg 63%
12:00 +18°C° 0 mm 1 m/s 744 mmHg 61%
13:00 +17°C° 0 mm 0 m/s 744 mmHg 58%
14:00 +20°C° 0 mm 1 m/s 744 mmHg 55%
15:00 +19°C° 0 mm 1 m/s 743 mmHg 59%
16:00 +19°C° 0 mm 1 m/s 743 mmHg 62%
17:00 +19°C° 0 mm 1 m/s 742 mmHg 66%
18:00 +16°C° 0 mm 1 m/s 742 mmHg 71%
19:00 +15°C° 0 mm 1 m/s 742 mmHg 75%
20:00 +13°C° 0 mm 1 m/s 742 mmHg 80%
21:00 +13°C° 0 mm 1 m/s 742 mmHg 81%
22:00 +13°C° 0 mm 2 m/s 742 mmHg 82%
23:00 +13°C° 0 mm 2 m/s 742 mmHg 83%

Mâine, 21 Septembrie, Luni

Timp Temperatura Precipitaţii Vânt Presiune Umiditate
00:00 +12°C° 0 mm 2 m/s 742 mmHg 86%
01:00 +12°C° 0 mm 2 m/s 742 mmHg 88%
02:00 +10°C° 0 mm 2 m/s 742 mmHg 91%
03:00 +10°C° 0 mm 2 m/s 742 mmHg 91%
04:00 +10°C° 0 mm 2 m/s 742 mmHg 92%
05:00 +10°C° 0 mm 2 m/s 741 mmHg 92%
06:00 +10°C° 0 mm 2 m/s 741 mmHg 90%
07:00 +12°C° 0 mm 2 m/s 742 mmHg 88%
08:00 +13°C° 0 mm 2 m/s 742 mmHg 85%
09:00 +15°C° 0 mm 2 m/s 742 mmHg 79%
10:00 +16°C° 0 mm 2 m/s 742 mmHg 72%
11:00 +18°C° 0 mm 3 m/s 741 mmHg 65%
12:00 +19°C° 0 mm 3 m/s 741 mmHg 61%
13:00 +19°C° 0 mm 3 m/s 741 mmHg 57%
14:00 +20°C° 0 mm 3 m/s 741 mmHg 53%
15:00 +20°C° 0 mm 3 m/s 741 mmHg 56%
16:00 +19°C° 0 mm 2 m/s 740 mmHg 59%
17:00 +19°C° 0 mm 2 m/s 740 mmHg 61%
18:00 +17°C° 0 mm 2 m/s 740 mmHg 64%
19:00 +15°C° 0 mm 2 m/s 740 mmHg 67%
20:00 +14°C° 0 mm 2 m/s 740 mmHg 70%
21:00 +13°C° 0 mm 2 m/s 739 mmHg 72%
22:00 +13°C° 0 mm 2 m/s 739 mmHg 74%
23:00 +13°C° 0 mm 2 m/s 739 mmHg 76%

Poimâine, 22 Septembrie, Marţi

Timp Temperatura Precipitaţii Vânt Presiune Umiditate
00:00 +12°C° 0 mm 2 m/s 739 mmHg 78%
01:00 +12°C° 0 mm 2 m/s 739 mmHg 80%
02:00 +12°C° 0 mm 2 m/s 739 mmHg 83%
03:00 +12°C° 0 mm 2 m/s 738 mmHg 84%
04:00 +10°C° 0 mm 2 m/s 738 mmHg 86%
05:00 +10°C° 0 mm 2 m/s 738 mmHg 87%
06:00 +12°C° 0 mm 2 m/s 738 mmHg 84%
07:00 +13°C° 0 mm 2 m/s 738 mmHg 81%
08:00 +12°C° 0 mm 3 m/s 738 mmHg 79%
09:00 +14°C° 0 mm 3 m/s 738 mmHg 72%
10:00 +17°C° 0 mm 3 m/s 739 mmHg 65%
11:00 +19°C° 0 mm 3 m/s 739 mmHg 59%
12:00 +20°C° 0 mm 3 m/s 738 mmHg 57%
13:00 +21°C° 0 mm 3 m/s 738 mmHg 55%
14:00 +22°C° 0 mm 3 m/s 738 mmHg 53%
15:00 +22°C° 0 mm 3 m/s 738 mmHg 56%
16:00 +21°C° 0 mm 2 m/s 737 mmHg 60%
17:00 +21°C° 0 mm 2 m/s 737 mmHg 63%
18:00 +19°C° 0 mm 2 m/s 737 mmHg 67%
19:00 +18°C° 0 mm 3 m/s 736 mmHg 71%
20:00 +16°C° 0 mm 3 m/s 736 mmHg 74%
21:00 +16°C° 0 mm 3 m/s 736 mmHg 74%
22:00 +14°C° 0 mm 3 m/s 736 mmHg 74%
23:00 +14°C° 0 mm 3 m/s 736 mmHg 74%

23 Septembrie, Miercuri

Timp Temperatura Precipitaţii Vânt Presiune Umiditate
00:00 +14°C° 0 mm 3 m/s 735 mmHg 74%
01:00 +13°C° 0 mm 3 m/s 735 mmHg 74%
02:00 +13°C° 0 mm 3 m/s 735 mmHg 73%
03:00 +13°C° 0 mm 3 m/s 735 mmHg 74%
04:00 +12°C° 0 mm 3 m/s 734 mmHg 75%
05:00 +12°C° 0 mm 3 m/s 734 mmHg 76%
06:00 +13°C° 0 mm 4 m/s 734 mmHg 76%
07:00 +13°C° 0 mm 4 m/s 734 mmHg 76%
08:00 +14°C° 0 mm 4 m/s 734 mmHg 75%
09:00 +17°C° 0 mm 4 m/s 734 mmHg 70%
10:00 +19°C° 0 mm 4 m/s 734 mmHg 65%
11:00 +20°C° 0 mm 5 m/s 734 mmHg 59%
12:00 +22°C° 0 mm 4 m/s 734 mmHg 56%
13:00 +23°C° 0 mm 4 m/s 733 mmHg 53%
14:00 +25°C° 0 mm 4 m/s 733 mmHg 50%
15:00 +23°C° 0 mm 4 m/s 733 mmHg 54%
16:00 +24°C° 0 mm 3 m/s 733 mmHg 58%
17:00 +22°C° 0 mm 3 m/s 732 mmHg 61%
18:00 +20°C° 0 mm 3 m/s 732 mmHg 65%
19:00 +18°C° 0 mm 3 m/s 732 mmHg 70%
20:00 +17°C° 0 mm 3 m/s 732 mmHg 74%
21:00 +16°C° 0 mm 3 m/s 732 mmHg 76%
22:00 +14°C° 0 mm 3 m/s 732 mmHg 79%
23:00 +14°C° 0 mm 3 m/s 732 mmHg 81%

24 Septembrie, Joi

Timp Temperatura Precipitaţii Vânt Presiune Umiditate
00:00 +14°C° 0 mm 3 m/s 732 mmHg 82%
01:00 +13°C° 0 mm 3 m/s 732 mmHg 82%
02:00 +13°C° 0 mm 3 m/s 732 mmHg 83%
03:00 +13°C° 0 mm 3 m/s 732 mmHg 83%
04:00 +13°C° 0 mm 3 m/s 732 mmHg 83%
05:00 +13°C° 0 mm 3 m/s 732 mmHg 83%
06:00 +13°C° 0 mm 4 m/s 732 mmHg 81%
07:00 +14°C° 0 mm 4 m/s 732 mmHg 78%
08:00 +15°C° 0 mm 4 m/s 732 mmHg 76%
09:00 +16°C° 0 mm 5 m/s 732 mmHg 71%
10:00 +19°C° 0 mm 5 m/s 732 mmHg 66%
11:00 +20°C° 0 mm 5 m/s 733 mmHg 61%
12:00 +21°C° 0 mm 5 m/s 733 mmHg 61%
13:00 +22°C° 0 mm 4 m/s 733 mmHg 60%
14:00 +23°C° 0 mm 4 m/s 733 mmHg 59%
15:00 +22°C° 0.1 mm 4 m/s 733 mmHg 63%
16:00 +22°C° 0.1 mm 3 m/s 733 mmHg 66%
17:00 +22°C° 0.1 mm 3 m/s 732 mmHg 69%
18:00 +20°C° 1.4 mm 3 m/s 733 mmHg 75%
19:00 +19°C° 1.4 mm 2 m/s 733 mmHg 81%
20:00 +18°C° 1.4 mm 2 m/s 733 mmHg 86%
21:00 +17°C° 0.3 mm 2 m/s 733 mmHg 86%
22:00 +17°C° 0.3 mm 2 m/s 733 mmHg 86%
23:00 +16°C° 0.3 mm 2 m/s 733 mmHg 86%

25 Septembrie, Vineri

Timp Temperatura Precipitaţii Vânt Presiune Umiditate
00:00 +16°C° 0 mm 2 m/s 733 mmHg 87%
01:00 +15°C° 0 mm 2 m/s 733 mmHg 88%
02:00 +15°C° 0 mm 2 m/s 733 mmHg 89%
03:00 +15°C° 0 mm 2 m/s 733 mmHg 90%
04:00 +15°C° 0 mm 2 m/s 733 mmHg 90%
05:00 +15°C° 0 mm 2 m/s 733 mmHg 91%
06:00 +15°C° 0 mm 2 m/s 733 mmHg 90%
07:00 +16°C° 0 mm 2 m/s 733 mmHg 89%
08:00 +16°C° 0 mm 3 m/s 733 mmHg 88%
09:00 +18°C° 0 mm 4 m/s 733 mmHg 83%
10:00 +19°C° 0 mm 4 m/s 732 mmHg 78%
11:00 +20°C° 0 mm 5 m/s 732 mmHg 73%
12:00 +21°C° 0 mm 6 m/s 732 mmHg 69%
13:00 +22°C° 0 mm 6 m/s 731 mmHg 66%
14:00 +23°C° 0 mm 7 m/s 731 mmHg 62%
15:00 +23°C° 0 mm 6 m/s 730 mmHg 63%
16:00 +22°C° 0 mm 6 m/s 730 mmHg 65%
17:00 +22°C° 0 mm 5 m/s 729 mmHg 66%
18:00 +21°C° 0 mm 6 m/s 729 mmHg 65%
19:00 +21°C° 0 mm 6 m/s 728 mmHg 64%
20:00 +21°C° 0 mm 7 m/s 728 mmHg 63%
21:00 +20°C° 0 mm 7 m/s 728 mmHg 63%
22:00 +20°C° 0 mm 7 m/s 728 mmHg 63%
23:00 +20°C° 0 mm 7 m/s 728 mmHg 63%
Arată mai mult